Location: Observatoire de Paris
(48.8363°N, 2.3365°E)
Time: 05:02:22
(UTC+01:00)

METEOR M2 - Pass Details

Date: 27 September 2021
Orbit: 819 x 826 km, 98.5° (Epoch: 19 October)

Event Time Altitude Azimuth Distance (km) Brightness Sun altitude
Rises 19:31:46 0° 170° (S) 3,337 ? -9.7°
Reaches altitude 10° 19:34:07 10° 172° (S) 2,410 ? -10.1°
Maximum altitude 19:39:26 71° 257° (WSW) 868 ? -11.0°
Drops below altitude 10° 19:44:49 10° 342° (NNW) 2,430 ? -11.8°
Sets 19:47:11 0° 345° (NNW) 3,368 ? -12.2°
